Weather History for Sylvania, GA

Change the Weather History Date:

Thursday, January 24, 2013

  Actual Average (KSAV) Record (KSAV)
Temperature  
Mean Temperature 56 °F 50 °F  
Max Temperature 69 °F 61 °F 80 °F (1974)
Min Temperature 41 °F 39 °F 17 °F (2003)
Degree Days  
Heating Degree Days 10 15  
Month to date heating degree days 381  
Since 1 July heating degree days 1071  
Cooling Degree Days 0 0  
Month to date cooling degree days 0  
Year to date cooling degree days 0  
Growing Degree Days 6 (Base 50)    
Moisture  
Dew Point 40 °F    
Average Humidity 57    
Maximum Humidity 84    
Minimum Humidity 24    
Precipitation  
Precipitation 0.00 in 0.12 in 2.53 in (1984)
Month to date precipitation 2.81  
Year to date precipitation 2.81  
Sea Level Pressure  
Sea Level Pressure 30.23 in    
Wind  
Wind Speed 8 mph (NW)    
Max Wind Speed 23 mph    
Max Gust Speed 31 mph    
Visibility 10 miles    
Events      
T = Trace of Precipitation, MM = Missing Value Source: NWS Daily Summary

Daily Weather History Graph

Daily Weather History Graph

Search for Another Location

Airport:

Trip Planner

Search our weather history database for the weather conditions in past years. The results will help you decide how hot, cold, wet, or windy it might be!

Date:

Astronomy

Jan. 24, 2013 Rise Set
Actual Time 7:25 AM EST 5:52 PM EST
Civil Twilight 6:59 AM EST 6:18 PM EST
Nautical Twilight 6:29 AM EST 6:48 PM EST
Astronomical Twilight 6:00 AM EST 7:17 PM EST
Moon 3:54 PM EST (1/24) 5:20 AM EST (1/24)
Length of Visible Light 11h 18m
Length of Day
10h 26m
Waxing Gibbous, 94% of the Moon is Illuminated
Jan 24
Waxing Gibbous
Jan 26
Full
Feb 3
Last Quarter
Feb 10
New
Feb 17
First Quarter

Hourly Weather History & Observations

Time (EST) Temp. Windchill Dew Point Humidity Pressure Visibility Wind Dir Wind Speed Gust Speed Precip Events Conditions
12:15 AM 48.2 °F - 40.1 °F 74% 30.21 in 10.0 mi West 3.5 mph - N/A   Clear
12:55 AM 49.1 °F - 41.0 °F 74% 30.21 in 10.0 mi West 3.5 mph - N/A   Scattered Clouds
1:15 AM 49.1 °F - 41.0 °F 74% 30.21 in 10.0 mi West 3.5 mph - N/A   Scattered Clouds
1:35 AM 49.6 °F - 41.5 °F 74% 30.21 in 10.0 mi West 3.5 mph - N/A   Mostly Cloudy
1:55 AM 49.3 °F - 41.5 °F 75% 30.20 in 10.0 mi WSW 4.6 mph - N/A   Scattered Clouds
2:15 AM 49.1 °F - 41.7 °F 76% 30.19 in 10.0 mi West 4.6 mph - N/A   Clear
2:35 AM 48.7 °F - 41.9 °F 77% 30.19 in 10.0 mi West 3.5 mph - N/A   Clear
2:55 AM 48.7 °F - 41.9 °F 77% 30.18 in 10.0 mi West 3.5 mph - N/A   Scattered Clouds
3:15 AM 49.1 °F - 42.1 °F 77% 30.18 in 10.0 mi Calm Calm - N/A   Scattered Clouds
3:35 AM 49.8 °F - 42.8 °F 77% 30.17 in 10.0 mi West 4.6 mph - N/A   Scattered Clouds
3:55 AM 50.0 °F - 42.8 °F 76% 30.16 in 10.0 mi West 4.6 mph - N/A   Scattered Clouds
4:15 AM 50.5 °F - 43.2 °F 76% 30.15 in 10.0 mi West 5.8 mph - N/A   Scattered Clouds
4:35 AM 50.9 °F - 43.7 °F 76% 30.15 in 10.0 mi West 5.8 mph - N/A   Clear
4:55 AM 51.1 °F - 44.1 °F 77% 30.14 in 10.0 mi West 5.8 mph - N/A   Scattered Clouds
5:15 AM 51.1 °F - 44.6 °F 78% 30.15 in 10.0 mi West 4.6 mph - N/A   Scattered Clouds
5:35 AM 50.9 °F - 44.8 °F 80% 30.15 in 10.0 mi WSW 4.6 mph - N/A   Clear
5:55 AM 50.9 °F - 45.5 °F 82% 30.15 in 10.0 mi WSW 4.6 mph - N/A   Clear
6:15 AM 51.8 °F - 46.6 °F 82% 30.16 in 10.0 mi West 4.6 mph - N/A   Clear
6:35 AM 52.7 °F - 47.3 °F 82% 30.16 in 10.0 mi West 5.8 mph - N/A   Clear
6:55 AM 53.2 °F - 47.8 °F 82% 30.16 in 10.0 mi West 4.6 mph - N/A   Clear
7:15 AM 53.1 °F - 48.2 °F 84% 30.17 in 10.0 mi West 5.8 mph - N/A   Clear
7:35 AM 53.2 °F - 48.2 °F 83% 30.17 in 10.0 mi West 6.9 mph - N/A   Clear
7:55 AM 53.6 °F - 48.2 °F 82% 30.18 in 10.0 mi West 6.9 mph - N/A   Clear
8:15 AM 54.0 °F - 48.2 °F 81% 30.19 in 10.0 mi WNW 8.1 mph - N/A   Clear
8:35 AM 55.0 °F - 48.6 °F 79% 30.19 in 10.0 mi West 8.1 mph - N/A   Clear
8:55 AM 56.3 °F - 48.7 °F 76% 30.19 in 10.0 mi West 10.4 mph 16.1 mph N/A   Clear
9:15 AM 57.9 °F - 49.1 °F 72% 30.20 in 10.0 mi West 11.5 mph 18.4 mph N/A   Clear
9:35 AM 59.2 °F - 49.5 °F 70% 30.19 in 10.0 mi West 11.5 mph 17.3 mph N/A   Clear
9:55 AM 60.6 °F - 49.5 °F 67% 30.21 in 10.0 mi WNW 12.7 mph 18.4 mph N/A   Clear
10:15 AM 61.9 °F - 49.6 °F 64% 30.21 in 10.0 mi WNW 9.2 mph - N/A   Clear
10:35 AM 62.6 °F - 49.6 °F 63% 30.22 in 10.0 mi NW 16.1 mph - N/A   Clear
10:55 AM 63.1 °F - 49.6 °F 61% 30.23 in 10.0 mi WNW 15.0 mph 25.3 mph N/A   Clear
11:15 AM 63.9 °F - 49.5 °F 59% 30.23 in 10.0 mi NW 15.0 mph 21.9 mph N/A   Clear
11:35 AM 65.5 °F - 49.5 °F 56% 30.22 in 10.0 mi NW 10.4 mph 18.4 mph N/A   Clear
11:55 AM 65.8 °F - 48.9 °F 54% 30.22 in 10.0 mi NW 17.3 mph 24.2 mph N/A   Clear
12:15 PM 66.2 °F - 46.9 °F 50% 30.20 in 10.0 mi NW 20.7 mph 27.6 mph N/A   Clear
12:35 PM 67.1 °F - 46.0 °F 47% 30.19 in 10.0 mi NW 19.6 mph 25.3 mph N/A   Clear
12:55 PM 68.2 °F - 44.2 °F 42% 30.19 in 10.0 mi NW 23.0 mph 29.9 mph N/A   Clear
1:15 PM 69.1 °F - 43.0 °F 39% 30.18 in 10.0 mi NW 20.7 mph 27.6 mph N/A   Clear
1:35 PM 68.9 °F - 42.4 °F 38% 30.18 in 10.0 mi NW 20.7 mph 29.9 mph N/A   Clear
1:55 PM 69.1 °F - 41.9 °F 37% 30.18 in 10.0 mi NW 20.7 mph 27.6 mph N/A   Clear
2:15 PM 68.5 °F - 39.7 °F 35% 30.18 in 10.0 mi NW 15.0 mph 31.1 mph N/A   Clear
2:35 PM 68.9 °F - 38.3 °F 33% 30.18 in 10.0 mi NW 20.7 mph 27.6 mph N/A   Clear
2:55 PM 68.9 °F - 37.6 °F 32% 30.18 in 10.0 mi NW 19.6 mph 26.5 mph N/A   Clear
3:15 PM 68.5 °F - 36.9 °F 31% 30.19 in 10.0 mi NW 20.7 mph 25.3 mph N/A   Clear
3:35 PM 68.9 °F - 36.3 °F 30% 30.18 in 10.0 mi NNW 13.8 mph 21.9 mph N/A   Clear
3:55 PM 68.2 °F - 35.4 °F 30% 30.20 in 10.0 mi NW 10.4 mph 16.1 mph N/A   Clear
4:15 PM 68.2 °F - 34.3 °F 29% 30.19 in 10.0 mi NNW 16.1 mph 20.7 mph N/A   Clear
4:35 PM 68.0 °F - 30.0 °F 24% 30.20 in 10.0 mi NW 16.1 mph 23.0 mph N/A   Clear
4:55 PM 66.9 °F - 30.7 °F 26% 30.21 in 10.0 mi NNW 11.5 mph - N/A   Clear
5:15 PM 66.0 °F - 30.0 °F 26% 30.22 in 10.0 mi North 11.5 mph - N/A   Clear
5:35 PM 64.8 °F - 28.9 °F 26% 30.23 in 10.0 mi NW 10.4 mph - N/A   Clear
5:55 PM 63.3 °F - 28.4 °F 27% 30.24 in 10.0 mi NNW 8.1 mph - N/A   Clear
6:15 PM 61.0 °F - 28.4 °F 29% 30.25 in 10.0 mi NNW 6.9 mph - N/A   Clear
6:35 PM 59.5 °F - 28.6 °F 31% 30.27 in 10.0 mi North 4.6 mph - N/A   Clear
6:55 PM 58.1 °F - 29.1 °F 33% 30.27 in 10.0 mi North 3.5 mph - N/A   Clear
7:15 PM 56.5 °F - 29.5 °F 36% 30.28 in 10.0 mi North 4.6 mph - N/A   Clear
7:35 PM 55.2 °F - 36.9 °F 50% 30.31 in 10.0 mi East 10.4 mph 17.3 mph N/A   Clear
7:55 PM 53.8 °F - 37.6 °F 54% 30.32 in 10.0 mi East 12.7 mph 17.3 mph N/A   Clear
8:15 PM 52.3 °F - 36.1 °F 54% 30.33 in 10.0 mi East 12.7 mph 17.3 mph N/A   Clear
8:35 PM 51.1 °F - 34.7 °F 54% 30.35 in 10.0 mi East 10.4 mph 16.1 mph N/A   Clear
8:55 PM 50.4 °F - 33.3 °F 52% 30.36 in 10.0 mi East 9.2 mph 19.6 mph N/A   Clear
9:15 PM 49.3 °F - 30.6 °F 49% 30.37 in 10.0 mi East 12.7 mph 16.1 mph N/A   Clear
9:35 PM 48.2 °F - 30.6 °F 51% 30.39 in 10.0 mi East 11.5 mph - N/A   Clear
9:55 PM 47.3 °F - 28.4 °F 48% 30.39 in 10.0 mi East 8.1 mph 19.6 mph N/A   Clear
10:15 PM 46.4 °F 42.4 °F 27.5 °F 48% 30.40 in 10.0 mi East 8.1 mph 16.1 mph N/A   Clear
10:35 PM 45.9 °F 40.0 °F 26.8 °F 47% 30.40 in 10.0 mi East 12.7 mph 24.2 mph N/A   Clear
10:55 PM 45.0 °F 40.1 °F 27.0 °F 49% 30.41 in 10.0 mi East 9.2 mph 20.7 mph N/A   Clear
11:15 PM 43.7 °F 38.6 °F 25.9 °F 50% 30.42 in 10.0 mi East 9.2 mph - N/A   Clear
11:35 PM 42.8 °F 37.5 °F 24.4 °F 48% 30.43 in 10.0 mi East 9.2 mph - N/A   Clear
11:55 PM 41.7 °F 37.3 °F 24.6 °F 51% 30.42 in 10.0 mi East 6.9 mph - N/A   Clear